This is the latest recevied weather packets stored in our database for station/object WB6ANP. If no packets are shown the sender has not sent any weather packets the latest 10 day(s).
| Time | Temp. | Humidity | Pressure | Rain* | Wind** | Luminosity | Snow |
|---|---|---|---|---|---|---|---|
| 1777489488 | 16.11° C | 76% | 1015.2 hPa | 0 mm | - | 187 W/m² | - |
| 1777489184 | 16.11° C | 76% | 1015.1 hPa | 0 mm | - | 161 W/m² | - |
| 1777488881 | 16.11° C | 75% | 1015.1 hPa | 0 mm | - | 217 W/m² | - |
| 1777488578 | 16.11° C | 76% | 1015.3 hPa | 0 mm | - | 210 W/m² | - |
| 1777488276 | 16.11° C | 77% | 1015.3 hPa | 0 mm | - | 174 W/m² | - |
| 1777487974 | 16.11° C | 75% | 1015.3 hPa | 0 mm | - | 226 W/m² | - |
| 1777487672 | 16.11° C | 75% | 1015.6 hPa | 0 mm | - | 264 W/m² | - |
| 1777487368 | 15.56° C | 77% | 1015.8 hPa | 0 mm | - | 311 W/m² | - |
| 1777487066 | 15.56° C | 76% | 1015.7 hPa | 0 mm | - | 304 W/m² | - |
| 1777486761 | 15.56° C | 77% | 1015.9 hPa | 0 mm | - | 231 W/m² | - |
| 1777486460 | 15.56° C | 78% | 1015.8 hPa | 0 mm | - | 171 W/m² | - |
| 1777486157 | 15.56° C | 78% | 1016.2 hPa | 0 mm | - | 180 W/m² | - |
| 1777485855 | 15.56° C | 77% | 1016.3 hPa | 0 mm | - | 232 W/m² | - |
| 1777485555 | 15.56° C | 79% | 1016.3 hPa | 0 mm | - | 155 W/m² | - |
| 1777485251 | 15.56° C | 78% | 1016.3 hPa | 0 mm | - | 132 W/m² | - |
| 1777484948 | 15.56° C | 78% | 1016.2 hPa | 0 mm | - | 156 W/m² | - |
| 1777484644 | 15.56° C | 78% | 1016.2 hPa | 0 mm | - | 153 W/m² | - |
| 1777484341 | 15° C | 78% | 1016.1 hPa | 0 mm | - | 169 W/m² | - |
| 1777484037 | 15° C | 78% | 1016.2 hPa | 0 mm | - | 176 W/m² | - |
| 1777483734 | 15° C | 78% | 1016.7 hPa | 0 mm | - | 182 W/m² | - |
| 1777483429 | 15° C | 79% | 1016.5 hPa | 0 mm | - | 138 W/m² | - |
| 1777483125 | 15° C | 79% | 1016.4 hPa | 0 mm | - | 131 W/m² | - |
| 1777482822 | 15° C | 79% | 1016.5 hPa | 0 mm | - | 177 W/m² | - |
| 1777482518 | 15° C | 80% | 1016.7 hPa | 0 mm | - | 128 W/m² | - |
| 1777482216 | 15° C | 80% | 1016.7 hPa | 0 mm | - | 114 W/m² | - |
* Rain latest hour (hover to see other rain measurements)
** Current wind speed in m/s (hover to see current wind gust speed)